Tracking 19477 objects as of 16-Jan-2019
HD Live streaming from Space Station
objects crossing your sky now

COSMOS 1299

Track COSMOS 1299 now!
10-day predictions
COSMOS 1299 is classified as:


NORAD ID: 12783
Int'l Code: 1981-081A
Perigee: 932.4 km
Apogee: 971.7 km
Inclination: 65.1 °
Period: 103.9 minutes
Semi major axis: 7323 km
RCS: 2.89 m2 (large)
Launch date: August 24, 1981
Source: Commonwealth of Independent States (former USSR) (CIS)
Launch site: TYURATAM MISSILE AND SPACE COMPLEX (TTMTR)
aabbcc
Your satellite tracking list
Your tracking list is empty




NASA's NSSDC Master Catalog

Two Line Element Set (TLE):
1 12783U 81081A   19015.90771338 -.00000076 +00000-0 +10773-4 0  9999
2 12783 065.1150 244.2416 0026841 037.3518 322.9403 13.85374183891949
Source of the keplerian elements: AFSPC